No.FOSSQuestion TitleDateViewsVotesAnswersUser
eSimSchematic contains unknown model2019-07-16 16/07/191101manisha...
eSimPin Not connected2019-07-15 15/07/191401manish....
eSimopenprojectfile() takes only a single file name2019-07-15 15/07/191201manisha...
OpenFOAMMultiple AMI, decreasing time step.2019-07-15 15/07/19700sg_03
eSimeSim_devices not showing at the time of schematic...2019-07-14 14/07/192201sharadj...
eSimIssue in eSim Project2019-07-14 14/07/193101nwyawahare
eSimlibrary for lm555n in CvPcb window2019-07-13 13/07/192901janibasha
eSimProject Submission2019-07-12 12/07/193402samkarthik
eSimFoot Print Mapping2019-07-12 12/07/192401samkarthik
eSimNot able to select any footprint2019-07-12 12/07/191201vishalp...
eSimSetting parameters for PCB2019-07-12 12/07/191701vishalp...
eSimError while Simulating2019-07-12 12/07/192401samkarthik
eSimafter reading netlist footprint error occur2019-07-12 12/07/192101ashishr...
eSimschematic of the assignment eSIM not run(RC code:1263)2019-07-12 12/07/19801subha983@
eSimregarding connection of components RC10632019-07-12 12/07/191601shahaji...
eSimCouldn't able to find out the footprint for v2, v32019-07-12 12/07/192001chalapa...
eSimError while doing schematic Creation2019-07-11 11/07/192301samkarthik
eSimRegarding CvPCB2019-07-11 11/07/191501shaista...
eSimerror while opening phython plotting editor2019-07-11 11/07/191901ashishr...
eSimPayment process for eSim coordinators workshop 27 july 192019-07-10 10/07/193301rbbhamare
eSimCvPCB does not read Footprints2019-07-10 10/07/193101madhurak
eSim1182 uploaded successfully for footprint of lm741 i follow the same with 7805...2019-07-10 10/07/194302revansidh
eSimProject File Name2019-07-10 10/07/192801sanjay....
DWSIM.ERROR IN POWER CALC OF PUMP2019-07-09 09/07/192501kristandon
eSimWhen convert kicad to Ng it shows a window of unknown model lm_7412019-07-09 09/07/192701revansidh
eSimWhile checking electrical rules it gives error at input and output label wher...2019-07-09 09/07/193102revansidh
eSimLm741 this component is not appeared under eSim_Devices so what is a solutio...2019-07-08 08/07/193601revansidh
eSimafter generation of gerber file then save it and when i type ctr+alt+T that w...2019-07-08 08/07/193001revansidh
eSimeSim Coordinator Workshop Assignment Submission2019-07-08 08/07/195002rbbhamare
eSimRegarding eSim Coordinator Workshop Assignment Submission2019-07-07 07/07/193201rbbhamare
eSimProblem in Selection of Lm_7412019-07-07 07/07/194002pushpbit
eSimMapping components with footprints and also onwords all video is not playing...2019-07-06 06/07/192801revansidh
eSimMapping components with footprints this video is not played in spoken tutoria...2019-07-06 06/07/192301revansidh
eSimRegarding Uploading of Assignment-RC No-14842019-07-06 06/07/193101navjot....
eSimLM_741 is not available in eSim_Subckt filter2019-07-05 05/07/195902bvsjaipur
eSimError During Simulation of Circuit in eSim2019-07-04 04/07/193601navjot....
eSimError During Simulation of Circuit2019-07-04 04/07/192401navjot....
Affordable-LaptopIssues with Wi-Fi2019-07-04 04/07/192401prarthjeet
ScilabImplementasi ImageDataStore funtion In Scilab2019-07-04 04/07/192701ariev_a...
eSimInstallation of esim(Python Package issue)2019-07-03 03/07/193501Shmscet...
Scilabparticipants are not received online certificate2019-07-03 03/07/193101gopal@1972
Affordable-LaptopCould you help us to get affordable Laptops to our college RC ID:14722019-07-03 03/07/192501gopal@1972
Affordable-LaptopMy RC NO.1472, We haven't received any LAPTOPS from IIT-B2019-07-03 03/07/192001gopal@1972
eSimMy RC NO.14722019-07-03 03/07/194801gopal@1972
eSimAssignment is tough and after watching spoken tutorial morethan three times ...2019-07-02 02/07/197203bvsjaipur
eSimI hope the Assignment 2 is attached instead of assignment 12019-07-02 02/07/197803gopal@1972
Affordable-LaptopOperating System2019-07-01 01/07/191901SriVidhya
DWSIMNot responding error2019-06-29 29/06/193103Nimisha
OpenFOAMInlet Velocity2019-06-28 28/06/193400moghimi...
ScilabXCOS MASKED SUPERBLOCK EDITOR2019-06-27 27/06/193301danielh...
DWSIMError while accessing compounds2019-06-26 26/06/192901Paritosh
ScilabLeft shift operaion and combining 3char to form an int value2019-06-26 26/06/193101Likhith...
Pythonunable to download certificate for may course2019-06-25 25/06/194701mbhush303
Affordable-LaptopI want to transfer my data from windows pc to debian laptop2019-06-24 24/06/192902saiplanner
ScilabpyImport -scipython2019-06-20 20/06/194201sneha
ScilabProblems with Image on GUI2019-06-18 18/06/194501Josiane
ScilabRead several csv files2019-06-18 18/06/194601AnimalA
ScilabPerformance between Windows and Linux2019-06-14 14/06/196000pbies
eSiminstallation2019-06-12 12/06/196701bvnr_s
Affordable-LaptopAC adapter for the affordable laptop2019-06-12 12/06/193701sethbharat
ScilabScilab to xcos and xcos to scilab communication2019-06-12 12/06/196000GirijaB
ScilabDependency file in scilab2019-06-10 10/06/194701Keerthi...
ScilabPlotting problem2019-06-07 07/06/196800minio373
ScilabUsing Clear Command in Examples with Dependency Code(s) - TBC Review2019-06-04 04/06/195102Parmana...
eSimSchematic contain unknown model "inv2x"2019-06-01 01/06/195702Kunal
PythonPython enrollment2019-06-01 01/06/196701Prikshit
DWSIMR.O desalination2019-05-17 17/05/1910001kavin
DWSIMCustom modeler2019-05-17 17/05/198501kavin
eSimWhen trying to convert kicad to ngspice it is showing "your schematic contain...2019-05-08 08/05/199502bhanupr...
ScilabCandycrush code2019-05-07 07/05/199101luisdri
ScilabScilab/Matlab Problem.2019-05-05 05/05/1911901cassar
ScilabRegarding Symbolic Tool Box2019-05-05 05/05/198800piratla...
ScilabRegarding TBC on Scilab2019-05-04 04/05/1911605trulyajays
Scilabhow to work on scilab2019-05-04 04/05/1912102Venkata...
ScilabHow to use scilab2019-05-04 04/05/198401Venkata...
Scilabregarding data sets2019-05-04 04/05/198601gusha
Scilabscilab doubt2019-05-04 04/05/1910102ravi2544
ScilabScilab codes and its results will be allowed to quote in publications, if i a...2019-05-04 04/05/199401Sathya
Scilabhalf wave rectifier model execution problem2019-05-03 03/05/1910101venkata...
DWSIMclassic extractive distillation with 2 simple columns,  with water, ethanol a...2019-04-29 29/04/1910201Svender...
DWSIMNot able to download the codes for Textbook Companion Project2019-04-24 24/04/1911101tangli666
Scilabusing cameras with Scilab and IPCV2019-04-10 10/04/1912000egge_d
PythonHow to keep the proxy setup active till the end of execution2019-04-10 10/04/1910101tutu10
PythonWhere to submit screening task2019-03-31 31/03/1911400Sajag
Pythonunable to attempt quiz62019-03-31 31/03/199901Amrutha
ScilabApplying Filters to signals2019-03-28 28/03/1912300lgunseor
DWSIMReaction manager2019-03-26 26/03/1917401Aybiee
FOSSEE Laptophow to uninstall debian and install windows 102019-03-26 26/03/198100monojgo...
Affordable-LaptopThe 1 Tb hard disk is automatically de-mounting2019-03-25 25/03/1910801saiplanner
Affordable-LaptopUnable to access update files for off-line update2019-03-22 22/03/198801sethbharat
ScilabMODULUS in XCOS2019-03-20 20/03/1912000raghu7862
PythonPython fossee fellowship reexam2019-03-19 19/03/199901rushic24
eSimunable to use esim_pspice library components2019-03-18 18/03/1912801Malli
OpenModelicaNot installed on macos2019-03-16 16/03/198701amol_gp
Affordable-LaptopI want to install Linux into my hard disk instead of Flash Drive, How can I d...2019-03-13 13/03/1911301Kishan
DWSIMequillibrium reactor2019-03-12 12/03/1920802madhur14
eSimAbout changing the course2019-03-09 09/03/1914202angadir...
eSimabsence of component in library2019-03-08 08/03/1915901shivanshu
PythonSelf Learning Course March/April 20192019-03-06 06/03/1915402meeraj
ScilabHelp a newbie; How to implement an equation?2019-03-05 05/03/1914001Throwaway
eSimIC subcircuit cannot found2019-03-04 04/03/1915901angadir...
Osdag2D views- report creation2019-03-04 04/03/1915602nandanam1
PythonSelf Workshop2019-03-02 02/03/1914803shweta_k
ScilabBuild a Band-pass Butterworth Filter2019-02-27 27/02/1913200UnknowS...
ScilabORIGINALITY OF EXAMPLES2019-02-25 25/02/1914301prankur...
eSimError while opening python plotting Editor. Please look at console for details2019-02-24 24/02/1916601Katakam...
Affordable-LaptopWPS Office installation in Thinbook 13102019-02-22 22/02/1915403mahesh464
ScilabCreate Xcos block with string parameter2019-02-14 14/02/1917800dagomar
ScilabHow to plot with 2 vector as horizontal axis.2019-02-13 13/02/1914902yanfanbl
RWhat after registraion?2019-02-13 13/02/1935902dishanisen
eSimCan not run the eSim software in Windows.2019-02-07 07/02/1919001ANNESYA...
OpenFOAMNo creation of processed files even after running.2019-02-06 06/02/1913501Rohan_S...
Affordable-LaptopNot able to hear sound2019-02-02 02/02/1922401sethbharat
eSimCan you provide the link for eSim installation for Windows 8?2019-02-01 01/02/1922301Subhashini
ScilabExample Naming Convention2019-01-30 30/01/1925102Parmana...
RBook proposal category2019-01-30 30/01/1926701MBhubanand
eSimHow to change the working directory of eSim?2019-01-30 30/01/1923002Subhashini
ScilabQuery regarding XCOS Super_f block2019-01-24 24/01/1917000vamsi7862
Scilabpolar graph : invisible axis2019-01-17 17/01/1914801Bilaz38
eSimSISO Experiment2019-01-15 15/01/1925201priyach...
Affordable-LaptopAugmenting memory2019-01-15 15/01/1920501Manoj
eSimError in simulating the circuit12019-01-14 14/01/1924701priyach...
eSimError in simulating the circuit2019-01-11 11/01/1928001priyach...
DWSIMIssues related to DWSIM in mac2019-01-08 08/01/1928702viggi08
eSimWhere is eSim windows installer available?2019-01-08 08/01/19801SJith
eSimsimulation error2019-01-07 07/01/1930805priyach...
Affordable-LaptopReminna Remote connection in Debian Thinbook and RDP connection from Windows PC2019-01-05 05/01/1917502mahesh464
ScilabAbout Xcos project2019-01-02 02/01/1919001CBChoud...
ScilabBook proposal2019-01-02 02/01/1921601CBChoud...
Scilab'syms' function2018-12-29 29/12/1825001Akhtar
PythonQuiz-6 -- Unable to continue2018-12-28 28/12/1819301Bhaghyesh
PythonPractice data structures_exercise_question_82018-12-26 26/12/1819701Bhaghyesh
DWSIMupload user define compound2018-12-23 23/12/1821701mehul09
ScilabEquivalent function for heaviside in scilab2018-12-20 20/12/1829302Akhtar
DWSIMDWSIM Wastewater treatment process2018-12-20 20/12/1825401Shubhas...
ScilabI sent a book proposal some days before . I made mistakes in proposal .I want...2018-12-18 18/12/1819901CBChoud...
Affordable-Laptopnetwork connectivity2018-12-18 18/12/1818011rucha
Image Processing Toolboximage processing functions are not responding2018-12-18 18/12/1821600Yogin
OpenFOAMChoosing exact boundary conditions2018-12-18 18/12/1817701razon13...
ScilabGet state vectors of state space block during simulation2018-12-17 17/12/1818203alexandru
OpenFOAMRegarding Proposal2018-12-17 17/12/1816601chetant...
OpenFOAMQuery regarding heat flux boundary condition in OpenFOAM2018-12-16 16/12/1815301gikkutom
Affordable-LaptopUnable to connect laptop with smart tv2018-12-15 15/12/1820103SadasivamM
Affordable-LaptopMalfunctioning of the laptop2018-12-15 15/12/1816401Priya_s...
OpenFOAMHeat flux boundary condition in OpenFOAM2018-12-15 15/12/1827801gikkutom
Affordable-Laptopkdenlive app image was working fine - now freeze in timeline, position marker...2018-12-10 10/12/1817901ranipv
eSimReverse Characteristics of Diode2018-12-08 08/12/1828301Gloria
eSimCurrent source in eSim2018-12-08 08/12/1820701Gloria
Affordable-LaptopVLC MEDIA PLAYER2018-12-07 07/12/1817201GSMahap...
Affordable-LaptopUninstallation2018-12-07 07/12/1816911GSMahap...
eSimInstallation of eSim software2018-12-06 06/12/1826003SAI14
Affordable-Laptopmissing qt and wxt terminals from gnuplot 5.2.52018-12-06 06/12/1824206ranipv
DWSIMProblem with "Valve"2018-12-05 05/12/1825203ferbg
ScilabProcessor in Loop, Hardware in Loop etc.2018-12-04 04/12/1822601dalaylama
DWSIMfind the enthalpy in python script2018-12-04 04/12/1821301mehul09
Affordable-LaptopIssue with offline update 32018-11-28 28/11/1821601manojku...
eSimSoftware download2018-11-28 28/11/1824301sweety
Affordable-LaptopError occured while updating the System2018-11-27 27/11/1825801Jitendr...
Affordable-LaptopEven after installing updates 2 and 3 the issue persist2018-11-26 26/11/1827701Jothi
Affordable-LaptopISO file of OS(Debian)2018-11-26 26/11/1821701Jitendr...
eSimUnable to find esim installer2018-11-26 26/11/1821601Prakash14
Affordable-LaptopDisk space (won't let me post unless title is longer than 12 characters, henc...2018-11-25 25/11/1832601Manoj
Affordable-LaptopLED above F3 key2018-11-24 24/11/1828602Manoj
ScilabHow to use the oscilloscope?2018-11-23 23/11/1823101Batmano
DWSIMRigourous Distillation column error with image file2018-11-21 21/11/1825101DoshiVarun
Affordable-LaptopNo LAN Port to the device. How can I use LAN wired connections to this Machin...2018-11-21 21/11/1822403balupp
Affordable-Laptopunable todetect sd card2018-11-15 15/11/1820301peeyush...
Affordable-LaptopProblem with Voice Record2018-11-15 15/11/1820401laxman-cs
Affordable-LaptopRegarding Devanagari Typing2018-11-15 15/11/1820110Vikram
Affordable-LaptopProblem with WiFi connection2018-11-15 15/11/1827301Vikram
Affordable-LaptopWEBCAM app: Videos inaccessible2018-11-15 15/11/1823801sumedha...
Affordable-LaptopInaccessible Hard disk2018-11-15 15/11/1817201sumedha...
Affordable-LaptopBattery Drainage2018-11-12 12/11/1817601Kishan
OpenFOAMBoundary condition at inlet2018-11-11 11/11/1824402sourav0921
Affordable-LaptopTo update Windows 10 software version in Linux OS (Thinbook)2018-11-04 04/11/1830501christo...
Affordable-LaptopCan not play vedio2018-11-03 03/11/1823911Dr_kalpana
DWSIMerror in a kinetic reaction2018-11-01 01/11/1828301mehul09
Scilabwave synthesis analysis using laplace transform2018-10-31 31/10/1829801priyada...
Affordable-LaptopAffordable laptop with Hard disk2018-10-31 31/10/1839013dadas
Affordable-LaptopUBS Port not functioning2018-10-31 31/10/1828811sharma49
Affordable-LaptopNo stereo sound2018-10-31 31/10/1822012b4balu
ScilabMoving average2018-10-26 26/10/1822701Noiser1234
Affordable-LaptopSound not working!2018-10-26 26/10/1822711mohamed.ld
Scilabcsim message "Excessive work done on this call"2018-10-26 26/10/1828101felipet...
ScilabData import from clipboard2018-10-25 25/10/181260602Noiser1234
ScilabString Handling in Scilab Xcos V5.5.22018-10-17 17/10/1832701Poornac...
ScilabDifferent tasks PLEASE HELP2018-10-14 14/10/1857101joosep
eSimpcbnew layout straight to ngspice?2018-10-08 08/10/1830401coupsde...
DWSIMerror in LLE ternary graph utility2018-10-08 08/10/1833402mehul09
Scilabscetoexe not working2018-10-05 05/10/1828100anupam
eSimNot able to open examples in esim, its showing " The system cannot find the s...2018-10-01 01/10/1825701nsnairtvm
eSimUnable to proceed with Setup program2018-09-30 30/09/1823401ksmk31
OpenFOAMFoam::error::printStack(Foam::Ostream&) at ??:?2018-09-27 27/09/1836201razon13...
OpenFOAMContinuity error cannot be removed by adjusting the outflow.2018-09-19 19/09/1861401razon13...
ScilabVoronoi Diagrams2018-09-17 17/09/1826301ritu_2306
DWSIMdoubt regarding reaction furnace and condenser2018-09-15 15/09/1828301rajat
Pythonlinspace is not found . i have window 32 bit. plz help me out .2018-09-15 15/09/1819901sushma
ScilabWhat is algebraic Loop? When it Occurs in Xcos? How to Overcome it?2018-08-31 31/08/1859501arundso...
ScilabRegarding Scilab commands xcorr2018-08-29 29/08/1826201Ajay
DWSIMError in stichiometry2018-08-24 24/08/1830803drmanka...
DWSIMSimulation of process model for n number of data points or observations2018-08-24 24/08/1827701drmanka...
DWSIMDevelopment of graphical user interface in Excel2018-08-24 24/08/1828301drmanka...
eSimwhile opening the schematic window this error occur?2018-08-13 13/08/1835001duraira...
ScilabSet logarithmic scale in Sgrayplot2018-08-02 02/08/1830700Matias
DWSIMabout flowsheet submission2018-07-29 29/07/1845001mehul09
PythonThe circulate.zip error2018-07-27 27/07/1827901prateek...
FOSSEE LaptopFOSSEE OS linke is down2018-07-23 23/07/1835401mrf3
DWSIMabout a scrubber design2018-07-22 22/07/1836701mehul09
DWSIMPipe unit operation2018-07-14 14/07/1833001Rick63
OpenFOAMConvergence in Open Foam Simulation2018-07-13 13/07/1829301ben
DWSIMAbout internship's forms2018-07-05 05/07/1834311mehul09
OpenFOAMSalome bentpipe to OpenFOAM2018-07-02 02/07/1836801Happys5
SBHSWhat is Error while running the Python based "run" file ?2018-06-29 29/06/1831801Moh005
PythonRegarding quiz 62018-06-27 27/06/1825201Akash_1998
Scilaba general forum question2018-06-25 25/06/1870301maxcy
Scilabfunction return2018-06-25 25/06/1830705maxcy
ScilabSciLab 6.0.1 and Symbolic Toolbox2018-06-25 25/06/1858102kamienn...
DWSIMSimulating a condensor2018-06-24 24/06/1837901Aftab
Scilabtutorial 15 not working2018-06-23 23/06/1833200maxcy
ScilabDouble integration by Scilab2018-06-21 21/06/1842200gu08134...
DWSIMPython Documentation For DWSIM2018-06-21 21/06/1840701ParaK
ScilabFFT processing block in XCOS2018-06-21 21/06/1853901shriniv...
DWSIMBubble Column Reactor Substitute2018-06-20 20/06/1836601ParaK
ScilabGet all the file name of a directory in a list2018-06-19 19/06/1828901sarahi
Scilabdebugger acting screwy2018-06-19 19/06/1826700maxcy
ScilabI am finding it difficult to interpret this graph2018-06-18 18/06/1829700chandra...
Scilabmore debugger questions2018-06-18 18/06/1830701maxcy
ScilabTemperature Distribution in a Square2018-06-17 17/06/1830800Karthik
Scilabprint Question2018-06-17 17/06/1828401maxcy
ScilabGaussian Elimination Tutorial again2018-06-17 17/06/1829300maxcy
Scilabposting question from the tutorial link doesn't work2018-06-17 17/06/1832701maxcy
Scilabdebugging a tutorial example2018-06-17 17/06/1846102maxcy
ScilabImplement a Scilab Program for Temperature of a Radioactive rod2018-06-16 16/06/1830400Karthik
Scilabplotting a deff2018-06-16 16/06/1826501maxcy
Scilabhow to check if a random process in wss in scilab2018-06-16 16/06/1828101chandra...
Scilabdebugging SciLab examples2018-06-15 15/06/1831301maxcy
Scilabdeveloping in SciLab2018-06-15 15/06/1826901maxcy
ScilabGaussian Elimination Tutorial2018-06-14 14/06/1836200maxcy
Scilabscilab posting question2018-06-14 14/06/1833901maxcy
Scilabspoken_tutorial site2018-06-11 11/06/1829601maxcy
ScilabMAC, can´t write to a file2018-06-10 10/06/1831200ot
eSimquestion and answer list out of date?2018-06-07 07/06/1828301johnCro...
ScilabScilab - Ballistic problem2018-06-05 05/06/1831400Yetem
eSimwhen I download eSim installer for windows Norton secrity rejects it2018-06-04 04/06/1831201johnCro...
DWSIMCompound not available2018-06-01 01/06/1834301Hemanand
DWSIMhelp about vinyl chloride2018-05-28 28/05/1830501M_A_P
DWSIMCrude Desalter Simulator2018-05-27 27/05/1834601vbs305
DWSIMseparator column in compound separater2018-05-26 26/05/1829401bheemesh
DWSIMfixing the output data for a given problem2018-05-26 26/05/1829601bheemesh
Signal Processing ToolboxChecking stationarity of a random process2018-05-26 26/05/1821000chandra...
ScilabUnable to install FOSSEE Optimisation toolbox2018-05-25 25/05/1837001arian
ScilabHow to find inverse laplace transform in scilab2018-05-24 24/05/1866300chandra...
PythonError in print statement2018-05-22 22/05/1825001manavsa...
Scilabscale of axes2018-05-22 22/05/1829101RudiLehn
DWSIMConversion reactor2018-05-22 22/05/1835604srwasan
DWSIMUNIQUAC package with default flash doesnot converge.2018-05-18 18/05/1837503teja9006
OpenFOAMUsing multiInteraction type patchInteractionModel2018-05-16 16/05/1833801surajiitk
eSimlooking for a VCO component2018-05-15 15/05/1830701cuichi
ScilabScilab-Isosurfaces2018-05-03 03/05/1830600lacastelos
ScilabHelp Scilab Isosurfaces2018-05-03 03/05/1827600lacastelos
ScilabIsosurfaces Scilab2018-05-03 03/05/1831400lacastelos
ScilabIsosurfaces - Help Scilab2018-05-03 03/05/1831000lacastelos
ScilabHow to do range filter of image??2018-05-02 02/05/1833700anil_mca4
ScilabHow do I retrieve a file from scilab that seems like it has been deleted?2018-04-28 28/04/1830701frida
ScilabError installing symbolic toolbox2018-04-25 25/04/1836400dhruvpa...
DWSIMBrine evaporation in DWSIM2018-04-21 21/04/1840701nagaraj...
PythonRegarding review of given question2018-04-18 18/04/1829901darpitk...
Scilabvery poor .pdf file2018-04-11 11/04/1831003maxcy
Scilabcompile and run is screwed up2018-04-11 11/04/1834002maxcy
eSimproblem with the analysis tab2018-04-06 06/04/1829901nivedita
ScilabMux/Demux vs Bus 22018-04-05 05/04/1830100Antonio
ScilabMux/Demux vs Bus2018-04-05 05/04/1835600Antonio
Pythonregarding task submision2018-04-04 04/04/1834102saitejm...
DWSIMRegarding adding compuonds in DWSIM2018-04-04 04/04/1862701Priyam_...
DWSIMAbout unit operations in DWSIM2018-04-03 03/04/1843901Parth
OsdagOSDAG installation problem2018-04-02 02/04/1835901Yallama...
Pythonhow to download certficate2018-03-31 31/03/1836501dharmesh7
eSimYour schematic contain unknown model lm317at2018-03-31 31/03/1837101sainath...
Pythoncan miss any quiz generate problem in issue the certificate2018-03-30 30/03/1830101Abhi9839
ScilabCPGE MODULE Bode parms2018-03-30 30/03/1835301AVISHVAk
Pythoncan't attempt the quiz 52018-03-30 30/03/1829201Bhargavi
Pythoncan't attempt the quiz 62018-03-30 30/03/1827401Tulasi
eSimError while plotting python plot editor. How do i rectify it?2018-03-29 29/03/1837501Sushmitha
eSimAbout Kicad library2018-03-29 29/03/1834801PoonamC...
Pythonmistakenly opened the quiz 12018-03-29 29/03/1829601dharmesh7
PythonQuize3 ragarding assignment submission #2018-03-28 28/03/1828701tejesh002
eSimkey error in source2018-03-28 28/03/1834701kavyada...
Osdagosdag is not opening2018-03-27 27/03/1839401sohilreddy
OsdagError while installation2018-03-26 26/03/1836101mokaeswar
PythonError in downloading certicate2018-03-25 25/03/1833901chetan_g
eSimHow to load components library2018-03-24 24/03/1837901ArshadR...
eSimError while opening python plotting Editor. Please look at console for more d...2018-03-23 23/03/1840702Sravani...
Scilabhow to identify exe file in Scilab2018-03-23 23/03/1835502padmavati
Signal Processing ToolboxOctave Interface Toolbox not installing (FOSSEE 2018 Fellowship)2018-03-23 23/03/1829301a_Xiu
eSimShows that schematic contains unknown model2018-03-23 23/03/1833701VSKhama...
Osdagexample.osi file not opening2018-03-22 22/03/1835701Subrata...
OsdagLAUNCHING OSDAG2018-03-22 22/03/1846102Hoshil_...
eSimERROR: Your schematic contain unknown model jfet_n_pspice2018-03-22 22/03/1837702Sravani...
DWSIMCATALYST is not present2018-03-22 22/03/1842002e.santosh
eSimabout coding2018-03-21 21/03/1833401PoonamC...
eSimWhy esim software is closing after few seconds after installing it2018-03-20 20/03/1835401ArshadR...
OsdagThis is a Test Question for OSDAG2018-03-19 19/03/1835401user100
PythonDoes The yaksh course BPPY is availble Through out the year?2018-03-19 19/03/1860601dave
eSimerror while opening python plotting editor2018-03-19 19/03/1836801Mayankb23
ScilabScilab 2C toolbox2018-03-19 19/03/1840401Akhil
eSimComponents missing in " Choose Component "2018-03-19 19/03/1835401Mayankb23
Scilabwhat is this toolbox2018-03-18 18/03/1833201maxcy
Scilabwindows version of scimax2018-03-18 18/03/1836501maxcy
Scilabcompiling from scilab2018-03-18 18/03/1840602maxcy
eSimUnable to load all the components in the respective libraries2018-03-18 18/03/1834401Sravani...
Python'linspace' not defined in canopy editor2018-03-17 17/03/18113501ankurrj5xe
Signal Processing ToolboxError while installing ocatave interface toolbox, required for DSP toolbox2018-03-17 17/03/1830601iakashp
eSimUnable to create a project2018-03-17 17/03/1855501Sravani...
eSimError in project creation2018-03-17 17/03/1837201Udit
eSimerror while opening a schematic2018-03-16 16/03/1836001vaishna...
eSimesim source i am not able to access2018-03-16 16/03/1837001ELDHO_SOY
eSimerror with source detail2018-03-16 16/03/1835801shubhpriya
Pythoni have a list assume 10 data in the list. If i want to remove number 3 to 8 d...2018-03-16 16/03/1828801jitendra
Scilabcall_scilab help file questions2018-03-16 16/03/1834700maxcy
Osdagosdag software not opening2018-03-15 15/03/1860601Subrata...
ScilabDesign of fir filters using windowing technique2018-03-14 14/03/1843400chandra...
PythonWhere can I find the data files and images required for the course?2018-03-13 13/03/1843101anuragr
eSimua741 pin details2018-03-13 13/03/1834602ashish
eSimAll the components are not downloaded.2018-03-12 12/03/1833101gaytrip...
PythonWhere can i found Python course?2018-03-12 12/03/1834202marmikp...
eSimerror: dos not contain any kicad netlist file for conversion2018-03-12 12/03/1843601shubhpriya
Scilabscilab and linux2018-03-11 11/03/1841501maxcy
Pythonimport error2018-03-11 11/03/1830601tharuna...
Signal Processing Toolboxlinux and Scilab2018-03-10 10/03/1837901maxcy
PythonInterface to submit questions.2018-03-09 09/03/1848501shubhan...
ScilabScilab Symbolic Toolbox2018-03-09 09/03/1894302maxcy
Scilabatoms toolbox and syms2018-03-08 08/03/1841600maxcy
OpenFOAMWhy Initial residual is not equal to the final residual obtained from the pre...2018-03-07 07/03/1856201ankur_garg
eSimcannot open project2018-03-07 07/03/1846903agrahara
eSimissue regarding number of ports2018-03-05 05/03/1835001anudeep...
ScilabConvolutional Neural Network2018-03-05 05/03/1839901advait
Scilabis the cloud working2018-03-05 05/03/1834501maxcy
Scilabevans code example not working2018-03-05 05/03/1843201maxcy
eSimPython plotting missing2018-03-04 04/03/1835401sounnda...
Scilabwhat is syms and how does it affect the code2018-03-04 04/03/1895502maxcy
Scilabsgrid from definition example2018-03-03 03/03/1834401maxcy
eSimNot able to start up the schematics.2018-03-03 03/03/1838801bunty.him
Scilabrerunning cloud code2018-03-03 03/03/1833901maxcy
Scilaba warning message2018-03-03 03/03/1835601maxcy
Scilabimporting .sce file2018-03-03 03/03/1835902maxcy
eSimCannot find 'eSim_' files in the components library2018-03-02 02/03/1836801rishabh...
Scilabwhy do we plot digital filter spectrum on 0 - 0.5 only2018-03-02 02/03/1833601chandra...
Scilabxgrid() is a no show2018-03-02 02/03/1838902maxcy
Scilabcopying code doesn't wotk2018-03-01 01/03/1835402maxcy
ScilabConvolutional Neural Network using the Caffe model2018-03-01 01/03/1838600advait
eSimsimulation problem in cmos inverter2018-03-01 01/03/1837102ajinkya...
eSimCan't seem to create a new project2018-03-01 01/03/1844202rishabh...
Scilabcsim coding question2018-03-01 01/03/1831701maxcy
Scilabcloud book examples not working2018-02-28 28/02/1836801maxcy
Scilabroot locus code from scilab book2018-02-28 28/02/1871302maxcy
Scilabposting questions2018-02-28 28/02/1837100maxcy
Pythoncanopy not available2018-02-28 28/02/1829801HarishS...
Scilabroot locus problem2018-02-28 28/02/1836904maxcy
Scilabroot locus example problem2018-02-28 28/02/1833601maxcy
Scilabevans example problem2018-02-28 28/02/1832801maxcy
Scilabevans example problem2018-02-28 28/02/1834401maxcy
Scilabevans example problem2018-02-28 28/02/1835701maxcy
DWSIMDehydration Plant Simulation2018-02-27 27/02/1837502Haaresh...
ScilabReview duration2018-02-27 27/02/1832901dhruvpa...
eSimSquare wave in eSim2018-02-27 27/02/1836502ajinkya...
Scilabmatrix operator2018-02-24 24/02/1837204maxcy
eSimNon available componant2018-02-24 24/02/1832201jrangar...
Scilabcode syntax question from example code2018-02-23 23/02/1834702maxcy
FOSSEE LaptopDIFFICULTY IN INSTALLING AND RUNNING OPTIMIZATION TOOL BOX2018-02-23 23/02/1829301varadar...
ScilabAlternate instruction in scilab for filtic in matlab2018-02-23 23/02/1853101Raji
Scilabcode syntax question2018-02-22 22/02/1834802maxcy
ScilabMatlab equivalent2018-02-21 21/02/1845403maxcy
eSimUNKNOWN MODEL-lm555n2018-02-20 20/02/1836801shekhar
DWSIMDehydration Plant2018-02-19 19/02/1843701Haaresh...
ScilabCan anyone help me figure out how to work with microdaq2018-02-16 16/02/1841301chandra...
eSimtransient analysis2018-02-16 16/02/1841002sounnda...
Scilabsetup GUI home page2018-02-16 16/02/1838402maxcy
Optimization ToolboxFOSSEE optimization toolbox does not load under Scilab 5.5.2/Windows 72018-02-12 12/02/1832002mottelet
Scilab-Arduinonot able to open the icon2018-02-10 10/02/1838302nilashri
Scilabregarding XCOS2018-02-10 10/02/1837602nilashri
eSimPython plot error-reg2018-02-05 05/02/1844802Jeevash...
eSimWaveform generation2018-02-05 05/02/1838701KarthikaK
eSimvcc supply-reg2018-02-04 04/02/1838401Jeevash...
DWSIMProble with opening DWSIM file into software2018-02-02 02/02/1848401sbdongare
eSimno python plot2018-01-26 26/01/1838301sounnda...
DWSIMKinetic reaction2018-01-21 21/01/1842201Divyans...
eSimcommand not found2018-01-14 14/01/1851401sounnda...
DWSIMRigorous Distillation2018-01-12 12/01/1850301Divyans...
DWSIMPFR step size error2018-01-11 11/01/1841301Rutuaj24
eSimhow to open a new project?2018-01-10 10/01/1847601VENKATT...
eSimPython Plot error2018-01-07 07/01/1845501shefali04
ScilabWorking with scilab (DSP Lab) and Texas instruments dsp processor2018-01-05 05/01/18101602chandra...
eSimWhat exactly eSim is?2018-01-04 04/01/1836202siddhes...
FOSSEE Laptopliblapack.so.3gf2018-01-03 03/01/1841401ulima
DWSIMDisplaying reaction results2017-12-31 31/12/1741701Divyans...
eSimHow to give inputs to the IC's2017-12-28 28/12/1743901A.Karthik
eSimHow to set a Path?2017-12-27 27/12/1740201VENKATT...
eSimHow to work with This Software in Laptop?2017-12-27 27/12/1739603VENKATT...
ScilabProblem with visualisatioin of output of chebyshev type one filter.2017-12-24 24/12/1738901chandra...
DWSIMcan you suggest me the solution for the error I'm getting while designing met...2017-12-22 22/12/1744001Harshali
Scilabinput function is behaving in a inconsist function2017-12-20 20/12/17140201chandra...
eSimunable to give title of the project.2017-12-20 20/12/1741802A.Karthik
ScilabProblem with input command in scilab for reading mulitiple data2017-12-20 20/12/1739301chandra...
Scilab2d graph. Powers of a variable.2017-12-16 16/12/1736611Abbas
ScilabProblem with design of iir lpf filter.2017-12-15 15/12/1737201chandra...
eSimpython plotting error and global label error2017-12-15 15/12/1758501Vignesh
eSimesim installation problem2017-12-13 13/12/1793118shekhar
eSimgraphical error2017-12-12 12/12/1735102sounnda...
eSimunable to use eSim sources2017-12-09 09/12/1759702amolbed...
ScilabProblem in visualistion of the output2017-12-09 09/12/1739801chandra...
ScilabProblem installing Scilab 6.0 on ubuntu 16.04 LTS2017-12-06 06/12/1755401chandra...
ScilabSteps to install scimax toolbox on Scilab2017-12-06 06/12/1746601sudip.26
eSimconversion error, unknown component2017-12-02 02/12/1744703sounnda...
ScilabFIR Filter design2017-12-01 01/12/1737901Akhtar
ScilabProblem finding the DFT of the sequence as the length of sequence increases2017-11-30 30/11/1789301chandra...
OpenFOAMLooking for Solver for Three Phase Heat Transfer with phase change for Cryoge...2017-11-29 29/11/1742301arezes
ScilabN point FFT calculation2017-11-28 28/11/1744801chandra...
OpenFOAMResource persons for OPENFOAM Software.2017-11-22 22/11/1739001thprasads
eSimProblem in opening the schematic window after double clicking the esim icon.2017-11-15 15/11/1751914kksunda...
Scilabproblem matrix dimension2017-11-13 13/11/1739601Timmy
ScilabThe Weierstrass-Mandelbrot curve2017-11-12 12/11/1746301Deniro
eSimsteps to do after getting an approved mail2017-11-11 11/11/1737401AKSHAYA
eSimerror while using thyristor.2017-11-09 09/11/1751402sheena
eSimCircuit Rules check error in Gnd2017-11-07 07/11/1740401Gokul
eSimfinding input signal2017-11-06 06/11/1741501sounnda...
eSimerror in ERC2017-11-06 06/11/1749507sounnda...
ScilabWeiner kinchin relation code2017-11-06 06/11/1752501chandra...
eSim'plot_data_i.txt' and 'plot_data_v.txt' files cannot be created. why is this ...2017-11-04 04/11/1750303sheena
eSimerror while simulating the schematic.2017-11-02 02/11/1749402sheena
DWSIMDWSIM for membrane separation2017-10-30 30/10/1764501faya
OpenModelicaModelling a Spark Plug for simulation project.2017-10-30 30/10/1738401Leong
eSimabstract submission2017-10-28 28/10/1739401Karthik...
eSimCIRCUIT SIMULATION PROPOSAL FORM SUBMIT ERROR2017-10-24 24/10/1747302CHETAN1994
eSimlast date for circuit simulation2017-10-23 23/10/1742601sounnda...
eSimComponents not Available2017-10-20 20/10/1742201dharm_007
eSimhow to simulate 555 timer based astable multivibrator with esim?2017-10-19 19/10/1757601anil
eSimLaunching esim on my pc.2017-10-18 18/10/1739905Telegenic
eSimproiect name error2017-10-18 18/10/1742901Abhilas...
Signal Processing ToolboxA Missing Block (OTA) in Xcos tool box2017-10-16 16/10/1737001Narayan...
System Identification ToolboxIs a PHARMACY background STUDENT can develop a TCB2017-10-13 13/10/1732611prashan...
ScilabHOW TO USE SCILAB FOR PHARMACY EDUCATION REGARDING ACTION AND REACTION OF CHE...2017-10-13 13/10/1742601prashan...
PythonIs a computer background student can develop a TCB2017-10-13 13/10/1749801Anjusiva
eSimproposal form2017-10-11 11/10/1742301sjitm
eSimwhere can i find a 3-phase ac source.2017-10-10 10/10/1743001Abhinay123
eSimProposal Form for circuit simulation project.2017-10-09 09/10/1746201Abhinay123
DWSIMDownloading the Tutorials2017-10-03 03/10/1750601akash.s...
DWSIMIssue in DWSIM Software Installation2017-10-02 02/10/1759601akash.s...
ScilabGlitch in Scilab version 62017-09-17 17/09/1748801prnaren
DWSIMThree phase open-source library2017-09-13 13/09/1749301simon
DWSIMThree phase library open-source2017-09-13 13/09/1751001simon
DWSIMcan we use DWSIM for simulutions for a spray or rotay drier systems2017-09-07 07/09/1754301bhagath...
OpenFOAMdiffusivity directional variables2017-08-30 30/08/1753001ashok
ScilabStand alone exe. from Scilab 6.0.02017-08-24 24/08/1762201antony
Optimization ToolboxInstallation problem2017-08-19 19/08/1745301SRS24
ScilabInverted graph2017-08-19 19/08/1746301rajeshbm
Pythonunable to install canopy2017-08-18 18/08/1750801ulfa
ScilabCommands: syms, laplace, ilaplace2017-08-15 15/08/17155901ojumut
DWSIMinternship details2017-08-14 14/08/1749101goyalakash
OpenFOAMchange of volume inside pipe2017-08-11 11/08/1755603ashok
Scilabinput problem2017-08-11 11/08/17109501jsant100
DWSIMRegarding Submission of flow sheet and its deadline.2017-08-07 07/08/1750901miral
eSimhai friends caan any one resolve the problem attached in images?2017-08-05 05/08/1741401mahesh
ScilabIncorrect polynomial operations?2017-08-04 04/08/1747001leohpaz
ScilabCan't convert old diagram (problem in version) while using To Workspace (xcos)2017-08-02 02/08/1751001leohpaz
OpenFOAMOpenFOAM Issue with Porous Media and Buoyancy2017-08-02 02/08/1761401rudhkul
Optimization Toolboxexample problem required for understanding.2017-07-31 31/07/1747101ravinde...
DWSIMAssigning operating pressure for distillation column2017-07-27 27/07/1758601mbali20
ScilabParticleLabeling with IPCV toolbox command imlabel2017-07-26 26/07/1749101Hackmet
ScilabQuery regarding submission of code2017-07-20 20/07/1746201amitkum...
ScilabIs it possible convert a PSPICE code to scilab code?2017-07-17 17/07/1750101amitkum...
OpenFOAMvertical loading in interfoam2017-07-11 11/07/1750501hsai1991
OpenFOAMConvergence while using icoFoam2017-07-06 06/07/1757601ankur_garg
eSimUnable to load footprints while opening CvPcb2017-07-05 05/07/1783802HARISHBHAT
eSimUnable to map footprints2017-07-04 04/07/1753702HARISHBHAT
OpenFOAMSimulation Of Flow over cylinder with forward splitter plate2017-07-03 03/07/1752501maheshtom
ScilabImage in GUI2017-07-03 03/07/1755601jayati
eSimUNABLE TO INSTALL IN UBUNTU16.04 LTS2017-06-28 28/06/1744301mahesh
ScilabLab Migration Proposal2017-06-19 19/06/1749001dimple
ScilabProblem with xls_link Scilab tool2017-06-16 16/06/1746801MrWhite10
eSimCan't install eSim 1.1.2 on Ubuntu 162017-06-12 12/06/1755503pldissa...
OpenFOAMOpenFOAM-1.6.x Installation Error2017-06-07 07/06/1757001Samarendra
Scilabhttps://help.scilab.org/ not working2017-06-06 06/06/1767902rampras...
ScilabDubugging in Scilab2017-06-06 06/06/1753802rampras...
SBHSError while running program2017-06-01 01/06/1753801lalitch...
ScilabImage processing performance2017-05-31 31/05/1754002Hackmet
Pythonhow to join the course2017-05-27 27/05/1756501anjU
Computer Vision ToolboxBlob Detection and Analysis2017-05-22 22/05/1747102teju5531
ScilabScilab problem2017-05-22 22/05/1752801skitlesas
ScilabScilab task problem2017-05-22 22/05/1752301skitlesas
ScilabNeed help with scilab task2017-05-21 21/05/1750501skitlesas
eSimeSim ibraries missing2017-05-20 20/05/1747801Franky
OpenFOAMDynamic Moving Mesh2017-05-20 20/05/1752901Samarendra
OpenFOAMHow to Create Baffles in Geometry2017-05-17 17/05/171552-11ankur_garg
Scilabscilab version 6 related problem2017-05-17 17/05/1754501ruchisingh
eSimPassing option to ngspice2017-05-15 15/05/1749702buleks
DWSIMstep size becomes too small error in plug flow reactor2017-05-14 14/05/1766301Nikhil
DWSIMdouble clicking not opening main editing window2017-05-12 12/05/1750001Nikhil
Scilab"Abort" command in Scilab 6.0.02017-05-08 08/05/1798202Hackmet
Scilabimage processing error in scilab2017-05-05 05/05/1752202gowtham...
ScilabSample source file in book proposal form2017-05-05 05/05/1748701amitkum...
ScilabError while opening scilab.2017-05-03 03/05/1780901gowtham...
Scilabproblem with the opening environment window.2017-05-01 01/05/1759002GVP
DWSIMMulti component Distillation2017-04-25 25/04/1791701RajatSu...
OpenFOAMHow to create a internal gate?2017-04-25 25/04/1780101hsai1991
OpenFOAMCannot find flow at bottom surface_slump test2017-04-25 25/04/1758704ashok
OpenFOAMplotting at a definite point2017-04-14 14/04/1767601SUBHANKAR
OpenFOAMgetting time-average flow fields within certain time interval2017-04-09 09/04/1791701SUBHANKAR
OpenModelicaHOW TO APPROACH MULTIBODY SYSTEM IN OPEN MODELICA2017-04-07 07/04/1748902DURAISAMY
ScilabQuestion for plotting 2D2017-04-05 05/04/17158903chanyau...
OpenFOAMplotting skin friction coefficient2017-04-03 03/04/17150101SUBHANKAR
OpenFOAMlaminar separation bubble2017-04-02 02/04/1752301SUBHANKAR
OpenFOAMSnappyHexMesh Tutorial2017-04-01 01/04/1773201ankur_garg
Scilabxcos - rfile_f - input format2017-03-31 31/03/1790701ebike_dev
ScilabHow to define variable for a matrix?2017-03-29 29/03/1752201emerson...
OpenFOAMpressure plot in paraFoam2017-03-27 27/03/1799701SUBHANKAR
eSimError trying to create schematic (Ubuntu running under Win10)2017-03-24 24/03/17107106lreni
eSimngspice not running in eSim2017-03-22 22/03/1765004RG190564
eSimWarning at starting eSim and error at calling ngspice2017-03-21 21/03/1753301RG190564
DWSIMUnbalanced equation2017-03-19 19/03/1761202nas.fiq
Scilabscilab simulation error 21; Invalid index.2017-03-18 18/03/17165201adiblhf
Scilabsimulation problem2017-03-17 17/03/1757601adiblhf
eSimSOFTWARE IS NOT WORKING2017-03-17 17/03/1760301ajitsingh
OpenFOAMpost-processing in paraview2017-03-10 10/03/1794101SUBHANKAR
DWSIMDWSIM components2017-03-08 08/03/1773602nirbhay...
OpenFOAMHow to find/call each individual cell in a computational domain2017-03-08 08/03/17179803sarojdip
ScilabSimulation of pipe flow2017-03-01 01/03/1759701jasvinder
Image Processing ToolboxImage read and display problem2017-02-24 24/02/1755901ramansa...
eSimQuery Related Esim2017-02-24 24/02/1750801Sunil4u
FOSSEE LaptopTest Question2017-02-23 23/02/1746001test
ScilabVelocity profile2017-02-16 16/02/1749301jasvinder
Signal Processing Toolboxplease specify the complete detailed instruction of installing scilab symboli...2017-02-10 10/02/1750801dhatta
Scilab2D Lookup Table: How to do it??2017-02-07 07/02/1794002Prof.X
ScilabCompile call_scilab in c++ using Eclipse IDE Helios Service Release 22017-02-04 04/02/1759901phamish...
Scilabscilab cloud2017-02-03 03/02/1767603girishl
SBHSMachine ID 62017-02-03 03/02/1750101140020009
ScilabQUESTION IS x(t)=exp(a*t) while a>12017-01-26 26/01/1760611dhatta
OpenFOAMmultiPhaseEulerFoam case running issue..2017-01-17 17/01/1791001sarojdip
OpenFOAMBasic queries regarding cad, mesh and sim2017-01-16 16/01/1758802Rawnap07
ScilabXcos Block Wizard2017-01-16 16/01/1779401Shigeru
DWSIMRECYCLE STREAM2017-01-10 10/01/17111301thubelihle
ScilabHow to load file .dat with true variable name2017-01-07 07/01/17166903dafri
Scilabusage of scilab2016-12-30 30/12/1679601lipikas...
DWSIMSIMULATION inquiry2016-12-29 29/12/1664402thubelihle
Scilabplot crashes using scf under Xubuntu2016-12-28 28/12/1653901sebf
ScilabsciFLT toolbox - Unable to load block from...2016-12-25 25/12/1689901DLakomy
DWSIMHEAT EXCHANGER2016-12-04 04/12/1686601thubelihle
DWSIMOPEN SOURCE APPLICATION2016-12-03 03/12/1665505thubelihle
DWSIMFLASH DRUM SEPARATOR2016-12-03 03/12/1675601thubelihle
ScilabXcos: an equivalent simulink palette2016-12-01 01/12/1670101Naiara
eSimnot getting frequency response2016-11-26 26/11/1654301bibek
eSimnot fetting correct result2016-11-24 24/11/1655501bibek
OpenFOAMpost-processing problem2016-11-23 23/11/1678901SUBHANKAR
eSimNor getting coorrect output for a clamper circuit2016-11-23 23/11/1667301bibek
ScilabIPD BlobStatistics2016-11-22 22/11/1654301AllenMar
ScilabHow to install E4coder in Scilab2016-11-22 22/11/1655701Mohamed
ScilabAdding a non-numerical header for a text file of numerical column values in S...2016-11-21 21/11/1669301Farhan
ScilabCombining two text files to one in Scilab2016-11-21 21/11/1661601Farhan
OpenFOAMproblem in results2016-11-21 21/11/1662302SUBHANKAR
ScilabfscanfMat in GUI (PushButton)2016-11-18 18/11/1665002Hackmet
ScilabfscanfMat via PushButton?2016-11-18 18/11/1659201Hackmet
eSimNot getting the correct Python plot2016-11-18 18/11/1660401bibek
Scilabmaking a circle looking like a circle2016-11-16 16/11/1699502moon61
ScilabHelp required in running a C program in scilab2016-11-16 16/11/1698706Vijay_K...
eSimeSim on BOSS Linux (anoop)2016-11-14 14/11/1657101madhan
ScilabPlotting coordinates2016-11-11 11/11/1656701AllenMar
ScilabRandom binary sequence generator2016-11-10 10/11/1670801ashutumho
ScilabImplementing Matlab function in scilab2016-11-10 10/11/1661501Nisha
ScilabBitBucket Repo2016-11-09 09/11/1654001Anuradha
ScilabCACSD toolbox install2016-11-06 06/11/1662501Survind...
OpenFOAMopenfoam to firefoam throuh paraview?2016-11-01 01/11/16116303frances...
OpenFOAMNo vortex shedding2016-10-31 31/10/1663001SUBHANKAR
ScilabHow to install scilab communication toolbox for Scilab 5.5.12016-10-29 29/10/1665201kavyama...
ScilabHow to draw gear profile.2016-10-26 26/10/1664501Prashant05
OpenFOAMparaview tools2016-10-21 21/10/1667901SUBHANKAR
OpenFOAMerror while running a solver2016-10-13 13/10/16329301SUBHANKAR
OpenFOAMSurfaceTracking2016-10-06 06/10/1669401Arahata
eSimSimulation not working. Error while opening phyton plotting editor2016-09-29 29/09/1661401memobec...
eSimSimulation not working2016-09-29 29/09/1659501memobec...
OpenFOAMboundary condition2016-09-26 26/09/1659901SUBHANKAR
OpenFOAMplotting the residuals2016-08-23 23/08/16124601SUBHANKAR
eSimdc analysis reg2016-08-18 18/08/1654201krishna
OpenFOAMplotting in paraview2016-08-16 16/08/1663802SUBHANKAR
eSimRun setup2016-08-08 08/08/16129401Shubham
eSimDC Analysis _reg2016-08-04 04/08/1683602krishna
OpenFOAMco-efficient of drag and lift2016-08-03 03/08/1683204SUBHANKAR
OpenFOAMopemFoam2016-08-02 02/08/1675602mrinal
Scilabsivp TOOLBOX2016-07-22 22/07/16120706amol_gp
eSimerror while opening python plotting error2016-07-21 21/07/1683201Ramu
OpenFOAMPROBLEM2016-07-21 21/07/1685001SUBHANKAR
Scilabunable to install SIVP2016-07-20 20/07/1690801amish
eSimUnable to install eSim on Ubuntu2016-07-19 19/07/1681301Ramu
eSimInjecting noise2016-07-16 16/07/1684001dangel
eSimexecution error reg2016-07-13 13/07/1675101krishna
ScilabScimax - Scilab Symbolic Toolbox2016-07-12 12/07/16185004gsanchi...
eSimExecution reg2016-07-11 11/07/1675903krishna
eSimregarding Lab migration project2016-07-09 09/07/1676701bjena
ScilabScilab Xcos2016-07-06 06/07/16160901jalpa
ScilabScilab 5.5.2 - Xcos2016-07-06 06/07/16252805jalpa
eSimpython plotting window does not open up (On latest build of eSim)2016-06-26 26/06/1695503kavyama...
eSiminstallation reg2016-06-24 24/06/1683901krishna
OpenFOAMblockmeshdict file2016-06-23 23/06/1682101SUBHANKAR
ScilabSCILAB certification2016-06-22 22/06/1693901miniranis
ScilabSCILAB code for lotka voltera model2016-06-19 19/06/1685601amol_gp
ScilabNumerical Linearization (CACSD tool)2016-06-15 15/06/1689703madhan
OpenFOAMWriting blockMeshDict file2016-06-14 14/06/1683701SUBHANKAR
eSimeSim not working in windows 102016-06-06 06/06/1693101dangel
eSimundetaking form2016-05-31 31/05/1674101bjena
eSimesim training on skype2016-05-31 31/05/1676701bjena
DWSIMNew Compound Creator Study2016-05-26 26/05/16172201akashbt
OpenFOAMobject inspector menu in paraview2016-05-25 25/05/1695201SUBHANKAR
ScilabAnswer format in scilab2016-05-16 16/05/16157901nihalbisen
OpenFOAMTROUBLE IN SIMULATION2016-05-15 15/05/16106002SUBHANKAR
OpenFOAMSimulation of Euler-lagrangian bubble using OpenFOAM2016-05-11 11/05/16138502anirban...
OpenFOAMOPENFOAM IN WINDOWS2016-05-10 10/05/16114401SUBHANKAR
eSimProblem in getting started with eSim2016-05-06 06/05/1697202jebi
ScilabError in graphic plot2016-05-03 03/05/16102201mipeli
DWSIMHow to install and run DWSIM on MAC AIR?2016-04-25 25/04/16114002dprao
ScilabDebug a function plot2016-04-25 25/04/16168604rinkley
OpenFOAMHow to plot a graph in Open foam2016-04-24 24/04/16149301KVK
eSimproblem in creating project2016-04-23 23/04/1683001teny
DWSIMCreating component hypothetically2016-04-22 22/04/16290202krunal
ScilabReading a wav file2016-04-21 21/04/16102302Muralik...
eSimscilab contourf plot axis scaling2016-04-06 06/04/1696401max0924051
Scilabscilab plot contourf2016-03-31 31/03/16105003max0924051
eSimincorect ac simulaton2016-03-29 29/03/16818011mikimo...
eSimeSim Eeschema Diode component problem.2016-03-24 24/03/16101101Winderson
eSimunable to simulate dc power supply2016-03-23 23/03/1682301ankush
eSimImpossibilité de créer un subcircuit.2016-03-22 22/03/1684501jptt
eSimImpossibilité de créer un subcircuit.2016-03-22 22/03/1677503jptt
OpenFOAMError in Turbulence Solver2016-03-18 18/03/16560006KVK
eSimEnable to find AC voltage source2016-03-15 15/03/16229402ankush
Scilabplot sin(x)/x2016-03-14 14/03/16125502RudiLehn
OpenFOAMSimulation error (delta T is decreasing while the iterations are being carrie...2016-03-13 13/03/16446005KVK
FOSSEE LaptopCost and postal charge2016-03-11 11/03/1691201arasu
eSimInstallation error2016-03-10 10/03/16100701alex
Scilabsurf color with OS X2016-03-06 06/03/1686503RudiLehn
eSimTesting Forum Reply2016-03-01 01/03/16991011fahim
eSimUnable to get details of source2016-03-01 01/03/1696005ankush
ScilabVehicle Count2016-02-27 27/02/16113301chinnur010
DWSIMEquilibrium reactor simulation2016-02-26 26/02/16356402Parul_s...
eSimRegarding footprint2016-02-25 25/02/1679303pankaj
Scilabreading dcm images - error2016-02-16 16/02/16114601dr.cs1973
Scilabmpi in scilab2016-02-14 14/02/1692301Vadim
FOSSEE LaptopHindi Typing Layout2016-02-13 13/02/1668802sai
FOSSEE LaptopKiwix - Offline Wikipedia2016-02-11 11/02/1664101sai
DWSIMTextbook companion project2016-02-10 10/02/1695602vignesh...
Scilabdrop2016-02-10 10/02/1689703JeniVenit
Python"syms" not taking help!2016-02-09 09/02/1679201rishabh...
eSimUnable to run the simulation2016-02-09 09/02/1698604balu.ee...
eSimError while opening python plotting Editor.2016-02-05 05/02/16102804yogi
FOSSEE Laptopfeatures of laptop2016-01-29 29/01/1675302janabha...
eSimlab migration programe2016-01-29 29/01/1685501janabha...
ScilabFlood fill Operation in Scilab2016-01-20 20/01/16155401saraths
eSimunable to install e sim on linux2016-01-18 18/01/1687001yogi
eSimunable to install e sim on linux2016-01-18 18/01/1692101yogi
eSimGetting errors when simulating the basic logic gates2016-01-18 18/01/1685501abaruah
eSimSimulation of basic logic gates2016-01-18 18/01/1683901abaruah
eSimSimulation of basic logic gates2016-01-18 18/01/16134703abaruah
eSimError while openinf python plotting Editor2016-01-18 18/01/1699502abaruah
FOSSEE Laptopaudio-video recorded by kazam2016-01-14 14/01/1656502sai
eSimabout istallation on ubuntu2016-01-11 11/01/1685401yesmahi
ScilabHow to make and display calculation Table using scilab.2016-01-11 11/01/16326501taneja
FOSSEE Laptopoffline wikipedia2016-01-09 09/01/1658701sai
ScilabSolution provided in book is wrong2016-01-06 06/01/1699801taneja
ScilabShould answer in book exactly match the one from your code.2016-01-05 05/01/1697002taneja
DWSIMConversion of Reaction2016-01-04 04/01/16128901manikth...
FOSSEE LaptopHow can I get Fossee Laptop2016-01-01 01/01/1662001shridha...
DWSIMUnavailability of compounds in Database2015-12-24 24/12/15164902Y.K.Ara...
DWSIMTEXTBOOK COMPANION INTERNSHIP2015-12-23 23/12/1591801manikth...
ScilabWavelet transform in scilab2015-12-12 12/12/15198302aseemsr
eSimRight pane of footprint editor is empty2015-11-25 25/11/1589901kavyama...
eSimI am unable to Install eSim software.2015-11-25 25/11/1594001balu.ee...
eSimRegarding IN/OUT pin configuration2015-11-06 06/11/1596002upk345
eSimunable to add LM741 subcircuit2015-11-04 04/11/1599602sunitha
eSimConduction of workshop regarding2015-10-31 31/10/1580901boomaee...
Osdagmazhar2015-10-27 27/10/1569902mazhar
eSimunable to open esim source to place sine wave2015-10-25 25/10/1587702muqeeth
eSimEsim Not supported in Windows10-Reg2015-10-24 24/10/1588801srimaky
eSimunable to create project2015-10-24 24/10/151442-12muqeeth
eSimHow to plot voltage Vs current through a diode (Diode chara.)2015-10-23 23/10/15130204kavyama...
eSimProblem regarding current direction.2015-10-21 21/10/1583301samre1234
eSimhow to measure resistance2015-10-21 21/10/1578801samre1234
DWSIMTransient simulations and Stream wise report2015-10-21 21/10/15125701prnaren
eSimMeasurement of resistance in eSim.2015-10-18 18/10/1576401samre1234
eSimTo measure and plot the branch current.2015-10-16 16/10/1587501samre1234
eSimInstallation with Windows2015-10-15 15/10/15106502srinaths
FOSSEE Laptopbrightness decreases after 10-15 seconds2015-10-15 15/10/1562001Deepak
eSimError while opening python plotting editor.2015-10-14 14/10/1597402samre1234
eSimAPR33A32015-10-08 08/10/1583701Swetha
eSimyour schematic contains an unknown component vplot8_12015-09-26 26/09/15135401samre1234
eSimYour schematic contain unknown model tl0722015-09-22 22/09/15104001Ebardie
eSimWIndows installation2015-09-22 22/09/15119703Ebardie
FOSSEE Laptopmouse pad and LAN2015-09-20 20/09/1558501150100063
FOSSEE Laptopunable to download flash player2015-09-15 15/09/1562501Deepak
FOSSEE Laptopmouse pad + keybord2015-09-14 14/09/1558301Jogendra
FOSSEE Laptopregarding password2015-09-14 14/09/1559001150260019
SandhiWhile creating up counter block in python getting following erros at cmake2015-09-08 08/09/1584311Ashwini
SandhiWhile generating up counter block getting following error at cmake2015-09-08 08/09/1564701Ashwini
Sandhisandhi installation error2015-09-03 03/09/1566201Ashwini
Sandhi"Sandhi" installation2015-09-03 03/09/1567001Ashwini
OpenFOAMcharger making sparking like noise2015-08-31 31/08/1581701150020063
SandhiError Message2015-08-31 31/08/1573602Ashwini
FOSSEE Laptopkeyboard2015-08-26 26/08/1571401bittu
FOSSEE LaptopHotspot2015-08-25 25/08/1565902akshayk...
SandhiWay to create block in Python2015-08-24 24/08/1599001Ashwini
FOSSEE LaptopInternet not working through lan cable2015-08-23 23/08/1561002akshayk...
FOSSEE Laptopcamera2015-08-23 23/08/1560901Deepak
SandhiBy default it is taking C++ language.Why not asking for language?2015-08-13 13/08/1568501Ashwini
Sandhiwhile running make command I am getting following error2015-08-06 06/08/1568800Ashwini
Scilab-ArduinoError while executing exec loader.sce2015-08-05 05/08/15114902kinitrupti
Scilab-Arduinocommunication over ethernet instead of usb2015-08-05 05/08/1574401Rajanee...
Scilab-ArduinoWhich macros is being used? .sci or .bin!!!2015-08-05 05/08/1556402Rajanee...
Scilab-Arduinomodification in firmware for pwm freq setup2015-08-05 05/08/1574301Rajanee...
SandhiWhile developing source block in sandhi getting errors:2015-08-05 05/08/1570800Ashwini
Sandhigrep2015-08-04 04/08/1569300Ashwini
Scilab-ArduinoCost of Arduino board with shield2015-08-04 04/08/1563802Siva_J
SandhiI want to implement same block as constatnt block2015-07-28 28/07/1572902Ashwini
Scilab-ArduinoUnable to upload program with Scilab Arduino Toolbox2015-07-26 26/07/15100706Navdeep
SandhiI want to change number of input2015-07-23 23/07/1570001Ashwini
Sandhii have module named as D into that block sub. Now i am going to create anothe...2015-07-23 23/07/1580801Ashwini
FOSSEE Laptophow to enter bios setup2015-07-16 16/07/1571311namitka...
SandhiPorting Sandhi program on website2015-07-16 16/07/1569800anamaykane
FOSSEE LaptopNot able to install Flash Plugin in Firefox on FOSSEE2015-07-15 15/07/1564701namitka...
SandhiScilab code to Sandhi block2015-07-13 13/07/1578903anamaykane
FOSSEE Laptopprinter2015-05-06 06/05/1578826rodneyb...
PythonCheck if a file exists using Python2015-03-27 27/03/15102405test2
FOSSEE LaptopDamped audio through speakers and headphone2015-03-26 26/03/1576711Srikant